Regional Weather Roundup
Issued by NWS

Home | Current Version | Previous Version | Text Only | Print | Product List | Glossary Off
Versions: 1 2 3 4 5 6 7 8 9 10 11 12 13 14 15 16 17 18 19 20 21 22 23 24 25 26 27 28 29 30 31 32 33 34 35 36 37 38 39 40 41 42 43 44 45 46 47 48 49 50

000
ASUS43 KLOT 010006
RWRIL

ILLINOIS REGIONAL WEATHER ROUNDUP
NATIONAL WEATHER SERVICE CHICAGO/ROMEOVILLE IL
600 PM CST SAT FEB 28 2015

NOTE: "FAIR" INDICATES FEW OR NO CLOUDS BELOW 12,000 FEET WITH NO
SIGNIFICANT WEATHER AND/OR OBSTRUCTIONS TO VISIBILITY.

* THESE STATIONS ARE NOT UNDER NWS QUALITY CONTROL. THEY ALSO MAY NOT
  REPORT WEATHER SUCH AS PRECIPITATION OR FOG.

ILZ001-002-007-009-015-016-024-010100-
NORTHWEST ILLINOIS

CITY           SKY/WX    TMP DP  RH WIND       PRES   REMARKS
MOLINE         LGT SNOW  17   9  70 E9        30.50F WCI   6
6HR MIN TEMP:  15; 6HR MAX TEMP:  19; 6HR PCP: TRACE;

STERLING*      CLOUDY    18  10  73 SE6       30.52S WCI   9
SAVANNA*       CLOUDY    17   6  64 SE8       30.52S WCI   6
$$

ILZ003-004-008-010-011-017-018-010100-
NORTH CENTRAL ILLINOIS

CITY           SKY/WX    TMP DP  RH WIND       PRES   REMARKS
ROCKFORD       CLOUDY    17   5  59 S6        30.53S WCI   9
6HR MIN TEMP:  12; 6HR MAX TEMP:  17;

FREEPORT*      CLOUDY    14   7  73 SE7       30.53R WCI   4
ROCHELLE*      CLOUDY    16   9  72 SE6       30.52S WCI   8
DE KALB*       CLOUDY    16   6  65 SE9       30.51S WCI   5
PERU*          LGT SNOW  19  14  82 SE7       30.53S WCI  10
$$

ILZ005-006-012>014-019>023-010100-
NORTHEAST ILLINOIS

CITY           SKY/WX    TMP DP  RH WIND       PRES   REMARKS
CHICAGO-OHARE  CLOUDY    19   4  51 S7        30.52F WCI  10
6HR MIN TEMP:  17; 6HR MAX TEMP:  21;

CHICAGO-MIDWAY CLOUDY    23   5  46 S7        30.54F WCI  15
6HR MIN TEMP:  19; 6HR MAX TEMP:  23;

AURORA         CLOUDY    20   7  57 SE7       30.53S WCI  11
6HR MIN TEMP:  16; 6HR MAX TEMP:  21;

LANSING*       CLOUDY    20   8  58 SE7       30.54F WCI  11
JOLIET*        CLOUDY    20   7  57 SE7       30.55R WCI  11
WAUKEGAN       MOCLDY    18   9  68 E6        30.50F WCI  10
6HR MIN TEMP:  16; 6HR MAX TEMP:  19;

DUPAGE AIRPORT CLOUDY    19   6  57 S8        30.52S WCI   9
6HR MIN TEMP:  16; 6HR MAX TEMP:  20;

KANKAKEE*      MIX PCPN  22  12  66 SE8       30.55R WCI  12
WHEELING       MOCLDY    20   2  45 S8        30.53F WCI  10
6HR MIN TEMP:  16; 6HR MAX TEMP:  21;

MORRIS*        CLOUDY    20  11  69 E3        30.53S
ROMEOVILLE*    CLOUDY    20   8  59 SE7       30.54R WCI  11
NORTHERLY ISL    N/A     21   6  52 SE9         N/A  WCI  11
$$

LMZ740>746-010100-
SOUTHERN LAKE MICHIGAN

STATION/POSITION SKY/WX   TEMP    WIND        PRES    VSBY  WAVE
                          AIR SEA DIR/SP/G                  HT/PER
                          (F)     (DEG/KT/KT) (MB)    (MI)  (FT/S)
WAUKEGAN HARBOR            20     140/ 10/ 12   N/A
HARRISON CRIB              19     110/ 12/ 14   N/A
BURNHAM HARBOR             21     130/  9/ 11   N/A
CALUMET HARBOR             21     140/  7/  9 1032.8F
MICHIGAN CITY              20     130/  5/  8   N/A
$$

ILZ025>027-034>036-040-047-049-050-058-095>099-010100-
WEST-CENTRAL ILLINOIS

CITY           SKY/WX    TMP DP  RH WIND       PRES   REMARKS
QUINCY         LGT SNOW  20  17  88 E7        30.46F VSB 3/4 WCI  11
GALESBURG*     LGT SNOW  19  17  91 CALM      30.48F
MACOMB*        LGT SNOW  20  19  94 CALM      30.50F
JACKSONVILLE*  LGT SNOW  23  20  88 E8        30.49S VSB 1   WCI  14
PITTSFIELD*    LGT SNOW  22  19  90 E7        30.48S WCI  13
$$

ILZ028>032-037-038-041>044-048-051>054-059>061-010100-
CENTRAL ILLINOIS

CITY           SKY/WX    TMP DP  RH WIND       PRES   REMARKS
PONTIAC        LGT SNOW  20  18  89 E8        30.53S WCI  11
BLOOMINGTON    LGT SNOW  20  17  88 SE5       30.51S VSB 1   WCI  14
DECATUR        LGT SNOW  21  18  88 E8        30.50S VSB 1   WCI  11
PEORIA         SNOW      22  18  85 SE5       30.51F VSB 1/2 WCI  16
6HR MIN TEMP:  22; 6HR MAX TEMP:  26; 6HR PCP:  0.02;

LACON*         LGT SNOW  18  14  84 E8        30.52S WCI   8
LINCOLN*       LGT SNOW  22  19  89 E7        30.53F WCI  14
SPRINGFIELD    LGT SNOW  22  18  85 SE10      30.50F VSB 1   WCI  11
6HR MIN TEMP:  22; 6HR MAX TEMP:  26; 6HR PCP:  0.06;

TAYLORVILLE    LGT SNOW  21  19  93 E7        30.50S VSB 3/4 WCI  13
$$

ILZ033-039-045-046-055>057-062-063-010100-
EAST-CENTRAL ILLINOIS

CITY           SKY/WX    TMP DP  RH WIND       PRES   REMARKS
CHAMPAIGN      LGT SNOW  21  18  88 E9        30.50S FOG     WCI  11
DANVILLE*      FLURRIES  22  15  73 SE10      30.49S WCI  11
RANTOUL*       LGT SNOW  24  18  80 SE8       30.51S WCI  14
MATTOON        LGT SNOW  22  18  85 SE7       30.49S VSB 1   WCI  13
PARIS*         LGT SNOW  23  20  88 CALM      30.52S
$$

ILZ079-100>102-010100-
SOUTHWEST ILLINOIS

CITY           SKY/WX    TMP DP  RH WIND       PRES   REMARKS
BELLEVILLE     LGT SNOW  25  25  99 E2        30.48R VSB 3/4
CAHOKIA*       SNOW      26  23  88 NE3       30.49R VSB 1/2
SPARTA*        SNOW      25  24  94 CALM      30.49R VSB 1/2
$$

ILZ064>066-069>071-074>076-080>082-084>086-088>090-092>094-010100-
SOUTH-CENTRAL ILLINOIS

CITY           SKY/WX    TMP DP  RH WIND       PRES   REMARKS
CARBONDALE     CLOUDY    30  21  69 N6        30.47R WCI  24
6HR MIN TEMP:  29; 6HR MAX TEMP:  32; 6HR PCP: TRACE;

CAIRO*         CLOUDY    36  20  53 NE5       30.46R WCI  32
EFFINGHAM*     LGT SNOW  24  20  85 E6        30.51F VSB 1   WCI  17
MARION         CLOUDY    32  19  59 N7        30.46F WCI  26
MT. VERNON     CLOUDY    27  21  80 NE3       30.49R VSB 1/2
CENTRALIA*     LGT SNOW  26  23  91 E3        30.48R VSB 1
SALEM*         LGT SNOW  27  24  88 E3        30.48S VSB 1
METROPOLIS*    CLOUDY    35  20  55 E3        30.42F
$$

ILZ067-068-072-073-078-083-087-091-010100-
SOUTHEAST ILLINOIS

CITY           SKY/WX    TMP DP  RH WIND       PRES   REMARKS
LAWRENCEVILLE  LGT SNOW  27  22  81 NE7       30.51F VSB 1   WCI  19
FLORA*         LGT SNOW  25  23  94 NE5       30.50F VSB 1   WCI  19
FAIRFIELD*     LGT SNOW  27  25  91 N6        30.48F WCI  20
HARRISBURG*    CLOUDY    32  22  66 E8        30.48S WCI  25
ROBINSON*      LGT SNOW  25  23  91 SE3       30.53F VSB 3/4
CARMI*         CLOUDY    34  25  68 E5        30.48S WCI  30
$$

ABBREVIATIONS USED IN REMARKS
   TC - TEMPERATURE IN CELSIUS
  WCI - WIND CHILL INDEX
   HX - HEAT INDEX
  VSB - VISIBILITY
$$




USA.gov is the U.S. government's official web portal to all federal, state and local government web resources and services.